Regional Weather Roundup
Issued by NWS

Home | Current Version | Previous Version | Text Only | Print | Product List | Glossary On
Versions: 1 2 3 4 5 6 7 8 9 10 11 12 13 14 15 16 17 18 19 20 21 22 23 24 25 26 27 28 29 30 31 32 33 34 35 36 37 38 39 40 41 42 43 44 45 46 47 48 49 50
630
ASMX46 KSGX 251911
RWRMX

MEXICAN WEATHER ROUNDUP
NATIONAL WEATHER SERVICE SAN DIEGO CA
1200 PM PDT WED MAY 25 2016

BAJA CALIFORNIA

CITY           SKY/WX    TMP DP  RH WIND       PRES   REMARKS
ENSENADA NW      N/A     65  32  28 W10       30.10R
LA PAZ         PTSUNNY   91  36  14 S8        30.01S
LORETO         PTSUNNY   82  66  57 NE9       29.98R
MEXICALI       SUNNY     79  32  18 NW15      29.96F
S.J. DEL CABO  CLOUDY    82  72  69 SE6       30.03R
TIJUANA        PTSUNNY   64  46  52 W10       30.13R

NORTHWESTERN MEXICO

CITY           SKY/WX    TMP DP  RH WIND       PRES   REMARKS
CHIHUAHUA      CLOUDY    86  39  19 S12       30.13F
CULIACAN       CLOUDY    84  70  61 CALM      30.02S
GUAYMAS        MOSUNNY   84  57  39 SW12      29.95S
HERMOSILLO     SUNNY     91  36  14 S9        30.02S
JUAREZ         MOSUNNY   88  45  22 W15       30.03F
LOS MOCHIS     CLOUDY    84  46  26 NW6       30.01S
OBREGON        MOSUNNY   93  34  12 S9        29.96S

NORTHEASTERN MEXICO

CITY           SKY/WX    TMP DP  RH WIND       PRES   REMARKS
MATAMOROS      CLOUDY    90  77  66 SE10      29.96S HX 102
MONCLOVA       PTSUNNY   91  72  52 NE6       29.97F HX  98
MONTERREY      PTSUNNY   90  70  51 NE6       29.93F HX  95
NUEVO LAREDO   PTSUNNY   90  77  66 SE15      29.93F HX 102
PIEDRAS NEGRAS CLOUDY    86  77  74 SE9       29.95F HAZE    HX  97
REYNOSA        PTSUNNY   88  73  62 E14       29.93F HX  96
SALTILLO       LGT RAIN  86  70  58 N9        30.21
TORREON        PTSUNNY   93  52  24 NW7       30.10F
VICTORIA       PTSUNNY   91  73  55 S14       29.93F HX 100

WESTERN MEXICO

CITY           SKY/WX    TMP DP  RH WIND       PRES   REMARKS
AGUASCALIENTES SUNNY     86  27  11 CALM      30.31F
COLIMA         MOSUNNY   86  64  48 CALM      30.08S
DURANGO        MOSUNNY   86  27  11 W3        30.30F
GUADALAJARA    SUNNY     90  30  12 NW14      30.22F
MANZANILLO     MOSUNNY   84  72  65 SW12      29.93F
MAZATLAN       MOSUNNY   91  68  46 SW6       29.97R HX  95
PTO. VALLARTA  SUNNY     86  73  66 SW12      29.97F
TEPIC          SUNNY     90  59  35 N9        30.12S
URUAPAN        SUNNY     82  61  47 S12       30.25F
ZACATECAS      SUNNY     88  34  14 W12       30.36F

CENTRAL MEXICO

CITY           SKY/WX    TMP DP  RH WIND       PRES   REMARKS
CUERNAVACA       N/A    N/A N/A N/A MISG        N/A
LEON           MOSUNNY   90  45  20 NW9       30.33F
MEXICO CITY    SUNNY     81  41  24 E5        30.40F
MORELIA        MOSUNNY   88  48  25 W9        30.28F
POZA RICA      PTSUNNY   95  81  63 SE9       29.93F HX 115
PUEBLA         SUNNY     79  37  22 SW6       30.40F
QUERETARO      MOSUNNY   86  46  25 S10       30.34F
S. LUIS POTOSI MOSUNNY   91  41  17 SE5       30.26F
TAMPICO        PTSUNNY   88  77  70 E8        29.92F HX 100
TOLUCA         MOSUNNY   79  48  34 N7        30.50F
VERACRUZ       MOSUNNY   93  79  62 E12       29.90F HX 110

SOUTHERN MEXICO

CITY           SKY/WX    TMP DP  RH WIND       PRES   REMARKS
ACAPULCO       SUNNY     88  79  74 SW15      29.92F HX 102
B. DE HUATULCO MOSUNNY   91  77  62 S14       29.97F HX 105
MINATITLAN     SUNNY     90  68  48 N12       29.85F
OAXACA         PTSUNNY   84  52  32 S8        30.25F
PTO. ESCONDIDO MOSUNNY   88  79  74 W14       30.01F HX 102
TAPACHULA      MOSUNNY   91  81  70 W12       29.85F HX 110
TUX. GUTIERREZ SUNNY     95  64  36 N5        29.95F HX  97
VILLAHERMOSA   MOSUNNY   95  79  59 E8        29.93F HX 112
ZIHUATANEJO    SUNNY     90  77  66 SW9       29.94F HX 102

YUCATAN PENINSULA

CITY           SKY/WX    TMP DP  RH WIND       PRES   REMARKS
CAMPECHE       MOSUNNY   99  70  39 E14       29.91F HX 105
CANCUN         PTSUNNY   90  73  58 E8        30.04F HX  98
CHETUMAL       MOSUNNY   90  79  70 E7        29.98F HX 105
C. DEL CARMEN  MOSUNNY   99  70  39 E9        29.92F HX 105
COZUMEL        MOSUNNY   88  77  70 NE9       30.02F HX 100
MERIDA         PTSUNNY   99  68  36 E6        29.96F HX 104

$$





USA.gov is the U.S. government's official web portal to all federal, state and local government web resources and services.